EW0610 Weather Reports


Display with metric or nautical units.
time (UTC)temp
F
wind
direction
speed
MPH
gust
MPH
rain 1hr
in
rain 24hr
in
rain mn
in
humidity
%
barometer
mb
20260906061932 85 212 2.0 6.0 0.00 0.00 0.00 66 1012.3
20260906061445 85 211 3.0 6.0 0.00 0.00 0.00 66 1012.3
20260906060927 85 220 2.0 4.0 0.00 0.00 0.00 66 1012.3
20260906060434 85 220 2.0 4.0 0.00 0.00 0.00 66 1012.4
20260906055943 85 220 2.0 4.0 0.00 0.00 0.00 65 1012.5
20260906055435 85 221 1.0 3.0 0.00 0.00 0.00 65 1012.5
20260906054941 85 221 1.0 4.0 0.00 0.00 0.00 65 1012.4
20260906054444 86 220 3.0 4.0 0.00 0.00 0.00 64 1012.5
20260906053928 86 220 3.0 5.0 0.00 0.00 0.00 64 1012.4
20260906053452 86 220 3.0 6.0 0.00 0.00 0.00 64 1012.4
20260906052936 86 178 3.0 7.0 0.00 0.00 0.00 64 1012.4
20260906052504 87 158 3.0 7.0 0.00 0.00 0.00 63 1012.4
20260906051953 87 185 2.0 6.0 0.00 0.00 0.00 63 1012.5
20260906051445 87 185 2.0 7.0 0.00 0.00 0.00 63 1012.5
20260906050951 87 199 3.0 11.0 0.00 0.00 0.00 62 1012.4
20260906050438 87 153 5.0 11.0 0.00 0.00 0.00 62 1012.4
20260906045956 87 153 6.0 10.0 0.00 0.00 0.00 61 1012.4
20260906045438 87 158 5.0 10.0 0.00 0.00 0.00 61 1012.5
20260906044929 87 148 5.0 7.0 0.00 0.00 0.00 61 1012.4
20260906044435 87 148 4.0 5.0 0.00 0.00 0.00 61 1012.3
20260906043942 87 148 2.0 5.0 0.00 0.00 0.00 61 1012.4
20260906043430 88 148 3.0 6.0 0.00 0.00 0.00 60 1012.3
20260906042945 88 148 3.0 6.0 0.00 0.00 0.00 60 1012.3
20260906042450 88 140 3.0 7.0 0.00 0.00 0.00 60 1012.2
20260906041934 88 148 4.0 10.0 0.00 0.00 0.00 59 1012.2
20260906041442 88 153 5.0 10.0 0.00 0.00 0.00 59 1012.1
20260906040929 88 174 5.0 10.0 0.00 0.00 0.00 59 1012.2
20260906040438 88 143 5.0 10.0 0.00 0.00 0.00 59 1012.1
20260906035943 88 164 5.0 10.0 0.00 0.00 0.00 59 1012.1
20260906035432 88 136 3.0 10.0 0.00 0.00 0.00 58 1012.2
20260906034943 88 148 5.0 10.0 0.00 0.00 0.00 58 1012.3
20260906034443 89 167 4.0 11.0 0.00 0.00 0.00 58 1012.3
20260906033931 89 158 7.0 11.0 0.00 0.00 0.00 57 1012.3
20260906033434 89 174 5.0 11.0 0.00 0.00 0.00 57 1012.3
20260906032943 89 162 5.0 11.0 0.00 0.00 0.00 57 1012.3
20260906032431 89 127 4.0 11.0 0.00 0.00 0.00 57 1012.3
20260906031940 89 129 7.0 12.0 0.00 0.00 0.00 56 1012.3
20260906031446 89 158 5.0 12.0 0.00 0.00 0.00 56 1012.2
20260906030949 89 130 5.0 10.0 0.00 0.00 0.00 55 1012.2
20260906030435 89 133 7.0 13.0 0.00 0.00 0.00 55 1012.2
20260906025941 90 117 6.0 13.0 0.00 0.00 0.00 54 1012.4
20260906025428 90 114 10.0 13.0 0.00 0.00 0.00 54 1012.3
20260906024935 90 114 5.0 11.0 0.00 0.00 0.00 54 1012.2
20260906024442 90 142 6.0 13.0 0.00 0.00 0.00 54 1012.0
20260906023931 90 119 6.0 13.0 0.00 0.00 0.00 54 1012.0
20260906023440 90 122 4.0 11.0 0.00 0.00 0.00 54 1011.9
20260906022928 90 118 5.0 10.0 0.00 0.00 0.00 54 1011.7
20260906022433 90 148 6.0 10.0 0.00 0.00 0.00 53 1011.7
20260906021942 91 116 6.0 11.0 0.00 0.00 0.00 53 1011.6
20260906021428 91 116 7.0 11.0 0.00 0.00 0.00 52 1011.7
20260906020941 91 110 4.0 15.0 0.00 0.00 0.00 52 1011.5
20260906020430 92 130 10.0 15.0 0.00 0.00 0.00 51 1011.5
20260906015935 92 124 7.0 12.0 0.00 0.00 0.00 50 1011.4
20260906015453 92 131 7.0 14.0 0.00 0.00 0.00 50 1011.3
20260906014937 93 136 9.0 14.0 0.00 0.00 0.00 49 1011.3
20260906014442 93 105 8.0 16.0 0.00 0.00 0.00 48 1011.1
20260906013945 93 129 7.0 16.0 0.00 0.00 0.00 46 1011.1
20260906013430 93 99 10.0 15.0 0.00 0.00 0.00 44 1011.0
20260906012935 94 106 3.0 5.0 0.00 0.00 0.00 43 1010.8
20260906012438 94 107 3.0 4.0 0.00 0.00 0.00 43 1010.7
20260906012009 94 106 3.0 4.0 0.00 0.00 0.00 42 1010.6
20260906011432 94 106 3.0 5.0 0.00 0.00 0.00 42 1010.5
20260906010944 95 106 4.0 7.0 0.00 0.00 0.00 41 1010.5
20260906010424 95 103 2.0 7.0 0.00 0.00 0.00 41 1010.5
20260906005935 95 104 3.0 7.0 0.00 0.00 0.00 41 1010.4
20260906005510 95 102 4.0 7.0 0.00 0.00 0.00 40 1010.4
20260906005000 96 93 5.0 7.0 0.00 0.00 0.00 40 1010.4
20260906004444 96 114 5.0 10.0 0.00 0.00 0.00 39 1010.4
20260906003929 96 108 3.0 10.0 0.00 0.00 0.00 39 1010.4
20260906003437 96 90 6.0 10.0 0.00 0.00 0.00 39 1010.4
20260906002944 96 100 4.0 8.0 0.00 0.00 0.00 39 1010.4
20260906002429 97 102 4.0 9.0 0.00 0.00 0.00 38 1010.4
20260906001955 97 62 6.0 10.0 0.00 0.00 0.00 38 1010.4
20260906001426 97 93 3.0 10.0 0.00 0.00 0.00 38 1010.4
20260906000930 97 102 5.0 9.0 0.00 0.00 0.00 38 1010.3
20260906000440 98 93 4.0 11.0 0.00 0.00 0.00 37 1010.2
20260905235929 98 55 7.0 11.0 0.00 0.00 0.00 37 1010.2
20260905235439 98 117 2.0 10.0 0.00 0.00 0.00 38 1010.2
20260905234931 98 109 5.0 10.0 0.00 0.00 0.00 38 1010.1
20260905234439 98 91 3.0 8.0 0.00 0.00 0.00 37 1010.1
20260905233946 98 115 4.0 7.0 0.00 0.00 0.00 37 1010.2
20260905233435 98 93 4.0 10.0 0.00 0.00 0.00 37 1010.2
20260905232938 98 101 4.0 10.0 0.00 0.00 0.00 38 1010.2
20260905232445 98 112 3.0 10.0 0.00 0.00 0.00 38 1010.2
20260905231957 98 69 2.0 10.0 0.00 0.00 0.00 38 1010.1
20260905231442 99 113 6.0 12.0 0.00 0.00 0.00 37 1010.2
20260905230944 98 110 8.0 13.0 0.00 0.00 0.00 38 1010.1
20260905230428 98 91 9.0 13.0 0.00 0.00 0.00 38 1010.1
20260905225949 99 106 4.0 10.0 0.00 0.00 0.00 37 1010.1
20260905225429 99 98 4.0 9.0 0.00 0.00 0.00 38 1010.0
20260905224935 99 88 2.0 11.0 0.00 0.00 0.00 37 1010.2
20260905224443 99 106 4.0 11.0 0.00 0.00 0.00 38 1010.2
20260905223933 99 89 1.0 12.0 0.00 0.00 0.00 37 1010.1
20260905223441 99 89 1.0 12.0 0.00 0.00 0.00 38 1010.1
20260905222929 99 148 2.0 6.0 0.00 0.00 0.00 38 1010.1
20260905222440 99 116 2.0 12.0 0.00 0.00 0.00 38 1010.2
20260905221929 99 140 2.0 12.0 0.00 0.00 0.00 39 1010.2
20260905221431 99 105 7.0 13.0 0.00 0.00 0.00 39 1010.2
20260905220935 99 96 4.0 13.0 0.00 0.00 0.00 39 1010.3
20260905220445 99 106 6.0 11.0 0.00 0.00 0.00 39 1010.3
20260905215931 100 100 6.0 11.0 0.00 0.00 0.00 38 1010.3
20260905215433 100 139 3.0 7.0 0.00 0.00 0.00 38 1010.3
20260905214940 99 114 0.0 7.0 0.00 0.00 0.00 36 1010.4
20260905214444 100 106 3.0 7.0 0.00 0.00 0.00 37 1010.5
20260905213953 100 132 3.0 11.0 0.00 0.00 0.00 36 1010.6
20260905213436 100 112 5.0 11.0 0.00 0.00 0.00 36 1010.6
20260905212943 99 109 5.0 11.0 0.00 0.00 0.00 37 1010.6
20260905212434 100 72 4.0 11.0 0.00 0.00 0.00 37 1010.7
20260905211941 99 106 3.0 12.0 0.00 0.00 0.00 39 1010.7
20260905211429 99 101 6.0 12.0 0.00 0.00 0.00 38 1010.7
20260905210936 99 97 2.0 11.0 0.00 0.00 0.00 38 1010.9
20260905210425 100 96 4.0 7.0 0.00 0.00 0.00 38 1011.0
20260905205931 100 93 0.0 4.0 0.00 0.00 0.00 39 1011.1
20260905205435 99 251 0.0 5.0 0.00 0.00 0.00 36 1011.1
20260905204946 99 251 1.0 6.0 0.00 0.00 0.00 36 1011.2
20260905204433 99 172 1.0 6.0 0.00 0.00 0.00 37 1011.2
20260905203935 99 121 1.0 6.0 0.00 0.00 0.00 37 1011.3
20260905203443 100 174 2.0 10.0 0.00 0.00 0.00 37 1011.4
20260905202931 100 105 7.0 10.0 0.00 0.00 0.00 37 1011.4
20260905202433 99 108 2.0 9.0 0.00 0.00 0.00 40 1011.4
20260905201937 98 106 2.0 9.0 0.00 0.00 0.00 38 1011.5
20260905201442 99 116 4.0 10.0 0.00 0.00 0.00 40 1011.6
20260905200949 98 112 3.0 10.0 0.00 0.00 0.00 39 1011.7
20260905200432 99 72 1.0 7.0 0.00 0.00 0.00 40 1011.7
20260905195941 99 95 1.0 12.0 0.00 0.00 0.00 41 1011.9
20260905195433 98 109 1.0 12.0 0.00 0.00 0.00 40 1011.9
20260905194934 98 97 6.0 11.0 0.00 0.00 0.00 41 1012.0
20260905194443 97 64 2.0 7.0 0.00 0.00 0.00 42 1012.1
20260905193947 97 91 1.0 7.0 0.00 0.00 0.00 40 1012.1
20260905193434 97 71 4.0 9.0 0.00 0.00 0.00 41 1012.2
20260905192935 97 108 1.0 11.0 0.00 0.00 0.00 41 1012.3
20260905192439 98 117 7.0 12.0 0.00 0.00 0.00 41 1012.3
20260905191944 97 122 5.0 12.0 0.00 0.00 0.00 42 1012.3
20260905191425 97 204 3.0 7.0 0.00 0.00 0.00 43 1012.6
20260905190934 97 135 4.0 10.0 0.00 0.00 0.00 43 1012.7
20260905190436 97 125 5.0 13.0 0.00 0.00 0.00 43 1012.7
20260905185943 97 85 9.0 13.0 0.00 0.00 0.00 42 1012.8
20260905185430 97 93 4.0 9.0 0.00 0.00 0.00 42 1012.9
20260905184938 98 139 2.0 6.0 0.00 0.00 0.00 42 1012.9
20260905184440 98 143 4.0 10.0 0.00 0.00 0.00 42 1013.1
20260905183927 98 162 5.0 10.0 0.00 0.00 0.00 42 1013.2
20260905183436 97 183 5.0 6.0 0.00 0.00 0.00 43 1013.2
20260905182938 96 122 2.0 9.0 0.00 0.00 0.00 42 1013.3
20260905182444 96 118 5.0 11.0 0.00 0.00 0.00 43 1013.3
20260905181929 96 224 4.0 11.0 0.00 0.00 0.00 42 1013.4
20260905181433 96 110 1.0 9.0 0.00 0.00 0.00 41 1013.6
20260905180943 96 111 4.0 9.0 0.00 0.00 0.00 41 1013.7
20260905180510 96 111 4.0 7.0 0.00 0.00 0.00 42 1013.7
20260905175954 96 166 2.0 7.0 0.00 0.00 0.00 44 1013.8
20260905175457 96 228 5.0 9.0 0.00 0.00 0.00 43 1013.9
20260905174944 95 119 4.0 15.0 0.00 0.00 0.00 43 1014.0
20260905174428 95 209 6.0 15.0 0.00 0.00 0.00 45 1014.0
20260905173936 95 123 3.0 9.0 0.00 0.00 0.00 45 1014.0
20260905173459 94 179 3.0 10.0 0.00 0.00 0.00 46 1014.1
20260905172947 95 138 6.0 10.0 0.00 0.00 0.00 44 1014.1
20260905172449 95 111 5.0 11.0 0.00 0.00 0.00 44 1014.2
20260905171955 94 100 7.0 11.0 0.00 0.00 0.00 45 1014.1
20260905171509 94 118 2.0 7.0 0.00 0.00 0.00 45 1014.3
20260905170934 94 95 4.0 10.0 0.00 0.00 0.00 47 1014.2
20260905170439 94 120 4.0 10.0 0.00 0.00 0.00 47 1014.2
20260905165946 94 124 4.0 10.0 0.00 0.00 0.00 46 1014.3
20260905165432 94 188 3.0 10.0 0.00 0.00 0.00 45 1014.3
20260905164942 94 108 3.0 6.0 0.00 0.00 0.00 48 1014.3
20260905164429 93 135 4.0 8.0 0.00 0.00 0.00 47 1014.4
20260905163934 92 229 5.0 8.0 0.00 0.00 0.00 48 1014.5
20260905163441 93 211 2.0 5.0 0.00 0.00 0.00 49 1014.5
20260905162953 92 118 2.0 6.0 0.00 0.00 0.00 50 1014.5
20260905162431 92 116 1.0 6.0 0.00 0.00 0.00 49 1014.4
20260905161932 92 143 3.0 6.0 0.00 0.00 0.00 50 1014.4
20260905161437 92 13 2.0 4.0 0.00 0.00 0.00 51 1014.5
20260905160941 92 328 2.0 4.0 0.00 0.00 0.00 51 1014.4
20260905160429 91 249 2.0 6.0 0.00 0.00 0.00 51 1014.4
20260905155935 91 250 0.0 7.0 0.00 0.00 0.00 52 1014.5
20260905155440 91 214 3.0 7.0 0.00 0.00 0.00 52 1014.4
20260905154943 91 241 2.0 6.0 0.00 0.00 0.00 52 1014.4
20260905154431 90 244 3.0 10.0 0.00 0.00 0.00 53 1014.5
20260905153937 91 251 3.0 10.0 0.00 0.00 0.00 54 1014.5
20260905153444 91 271 4.0 7.0 0.00 0.00 0.00 53 1014.5
20260905152927 90 272 3.0 10.0 0.00 0.00 0.00 55 1014.5
20260905152431 90 245 6.0 10.0 0.00 0.00 0.00 55 1014.3
20260905151940 89 270 2.0 7.0 0.00 0.00 0.00 56 1014.4
20260905151425 89 256 0.0 7.0 0.00 0.00 0.00 57 1014.4
20260905150959 89 243 2.0 7.0 0.00 0.00 0.00 59 1014.4
20260905150444 88 252 4.0 9.0 0.00 0.00 0.00 58 1014.3
20260905145930 88 291 3.0 9.0 0.00 0.00 0.00 59 1014.3
20260905145437 88 283 3.0 7.0 0.00 0.00 0.00 59 1014.3
20260905144945 88 256 2.0 5.0 0.00 0.00 0.00 60 1014.3
20260905144430 87 237 2.0 4.0 0.00 0.00 0.00 62 1014.3
20260905143936 86 237 1.0 6.0 0.00 0.00 0.00 63 1014.2
20260905143508 86 236 3.0 7.0 0.00 0.00 0.00 63 1014.2
20260905142932 85 224 3.0 7.0 0.00 0.00 0.00 64 1014.3
20260905142436 85 239 3.0 10.0 0.00 0.00 0.00 66 1014.2
20260905141945 85 248 6.0 10.0 0.00 0.00 0.00 67 1014.3
20260905141445 84 225 4.0 10.0 0.00 0.00 0.00 67 1014.3
20260905140928 84 233 5.0 10.0 0.00 0.00 0.00 67 1014.3
20260905140450 84 255 4.0 7.0 0.00 0.00 0.00 69 1014.2
20260905135940 83 225 5.0 7.0 0.00 0.00 0.00 70 1014.2
20260905135428 83 153 3.0 6.0 0.00 0.00 0.00 71 1014.1
20260905134938 83 198 3.0 9.0 0.00 0.00 0.00 72 1014.2
20260905134426 82 245 3.0 9.0 0.00 0.00 0.00 72 1014.2
20260905133932 82 254 2.0 7.0 0.00 0.00 0.00 73 1014.1
20260905133439 82 254 4.0 7.0 0.00 0.00 0.00 74 1014.1
20260905132944 81 211 2.0 4.0 0.00 0.00 0.00 74 1014.0
20260905132432 81 210 3.0 5.0 0.00 0.00 0.00 75 1014.0
20260905131936 81 210 3.0 5.0 0.00 0.00 0.00 75 1014.0
20260905131448 81 210 2.0 5.0 0.00 0.00 0.00 75 1014.0
20260905130930 80 209 2.0 5.0 0.00 0.00 0.00 76 1014.0
20260905130433 80 209 2.0 5.0 0.00 0.00 0.00 76 1013.9
20260905125937 80 208 3.0 4.0 0.00 0.00 0.00 77 1013.8
20260905125440 79 208 3.0 4.0 0.00 0.00 0.00 77 1013.7
20260905124930 79 208 1.0 2.0 0.00 0.00 0.00 77 1013.7
20260905124435 79 208 0.0 2.0 0.00 0.00 0.00 77 1013.7
20260905123943 79 208 0.0 2.0 0.00 0.00 0.00 77 1013.7
20260905123428 79 208 0.0 2.0 0.00 0.00 0.00 77 1013.7
20260905122953 79 208 2.0 3.0 0.00 0.00 0.00 77 1013.6
20260905122439 79 208 1.0 3.0 0.00 0.00 0.00 76 1013.5
20260905121956 79 208 2.0 4.0 0.00 0.00 0.00 76 1013.5
20260905121444 79 208 1.0 4.0 0.00 0.00 0.00 77 1013.5
20260905120928 79 207 0.0 2.0 0.00 0.00 0.00 77 1013.4
20260905120436 79 207 0.0 2.0 0.00 0.00 0.00 77 1013.4
20260905115941 79 207 0.0 0.0 0.00 0.00 0.00 77 1013.3
20260905115444 79 207 0.0 2.0 0.00 0.00 0.00 77 1013.3
20260905114930 79 207 0.0 2.0 0.00 0.00 0.00 76 1013.4
20260905114427 80 206 1.0 3.0 0.00 0.00 0.00 75 1013.3
20260905113935 80 206 1.0 5.0 0.00 0.00 0.00 75 1013.3
20260905113446 80 204 3.0 6.0 0.00 0.00 0.00 75 1013.2
20260905113002 80 203 4.0 6.0 0.00 0.00 0.00 75 1013.2
20260905112448 80 208 2.0 5.0 0.00 0.00 0.00 75 1013.0
20260905111955 80 209 3.0 5.0 0.00 0.00 0.00 75 1013.0
20260905111438 80 209 3.0 5.0 0.00 0.00 0.00 74 1013.0
20260905110947 80 209 3.0 5.0 0.00 0.00 0.00 74 1013.0
20260905110432 80 209 3.0 5.0 0.00 0.00 0.00 74 1013.1
20260905105941 81 210 1.0 5.0 0.00 0.00 0.00 74 1013.2
20260905105428 81 210 3.0 5.0 0.00 0.00 0.00 74 1013.1
20260905104937 81 211 2.0 5.0 0.00 0.00 0.00 74 1013.2
20260905104501 81 212 4.0 6.0 0.00 0.00 0.00 74 1013.3
20260905104007 81 217 3.0 6.0 0.00 0.00 0.00 74 1013.3
20260905103455 81 224 2.0 5.0 0.00 0.00 0.00 74 1013.4
20260905102941 81 226 3.0 5.0 0.00 0.00 0.00 74 1013.3
20260905102429 81 227 2.0 4.0 0.00 0.00 0.00 74 1013.4
20260905101933 81 227 3.0 4.0 0.00 0.00 0.00 74 1013.3
20260905101505 81 228 2.0 5.0 0.00 0.00 0.00 74 1013.3
20260905100936 81 230 3.0 5.0 0.00 0.00 0.00 74 1013.3
20260905100435 81 230 3.0 5.0 0.00 0.00 0.00 74 1013.3
20260905095939 80 231 3.0 5.0 0.00 0.00 0.00 74 1013.3
20260905095447 80 231 3.0 4.0 0.00 0.00 0.00 75 1013.3
20260905094929 80 231 3.0 4.0 0.00 0.00 0.00 75 1013.3
20260905094432 80 231 3.0 4.0 0.00 0.00 0.00 75 1013.3
20260905093934 80 231 2.0 4.0 0.00 0.00 0.00 74 1013.2
20260905093435 80 231 2.0 4.0 0.00 0.00 0.00 74 1013.2
20260905092947 80 230 1.0 4.0 0.00 0.00 0.00 73 1013.0
20260905092434 81 230 3.0 4.0 0.00 0.00 0.00 72 1013.0
20260905091926 81 229 3.0 4.0 0.00 0.00 0.00 72 1012.9
20260905091435 81 229 1.0 3.0 0.00 0.00 0.00 72 1012.9
20260905090944 81 229 1.0 3.0 0.00 0.00 0.00 73 1013.0
20260905090434 81 228 1.0 3.0 0.00 0.00 0.00 73 1012.9
20260905085936 81 228 1.0 3.0 0.00 0.00 0.00 73 1013.0
20260905085442 81 228 1.0 3.0 0.00 0.00 0.00 73 1013.0
20260905084926 81 228 2.0 3.0 0.00 0.00 0.00 73 1012.9
20260905084437 81 227 2.0 3.0 0.00 0.00 0.00 72 1012.9
20260905083940 81 227 2.0 3.0 0.00 0.00 0.00 72 1013.0
20260905083428 81 227 2.0 4.0 0.00 0.00 0.00 71 1012.9
20260905083006 81 227 2.0 4.0 0.00 0.00 0.00 71 1013.0
20260905082449 81 227 2.0 4.0 0.00 0.00 0.00 71 1012.8
20260905081957 81 227 2.0 4.0 0.00 0.00 0.00 71 1012.7
20260905081441 81 227 2.0 6.0 0.00 0.00 0.00 71 1012.8
20260905080949 81 226 4.0 6.0 0.00 0.00 0.00 70 1012.8
20260905080435 82 226 2.0 4.0 0.00 0.00 0.00 69 1012.7
20260905080007 83 226 2.0 4.0 0.00 0.00 0.00 68 1012.8
20260905075444 83 224 2.0 4.0 0.00 0.00 0.00 66 1012.8
20260905074953 83 224 2.0 5.0 0.00 0.00 0.00 66 1012.7
20260905074442 83 224 3.0 5.0 0.00 0.00 0.00 66 1012.8
20260905073950 83 222 1.0 2.0 0.00 0.00 0.00 66 1012.9
20260905073440 83 222 1.0 3.0 0.00 0.00 0.00 66 1012.9
20260905072945 83 220 1.0 3.0 0.00 0.00 0.00 66 1012.9
20260905072430 83 220 1.0 3.0 0.00 0.00 0.00 65 1013.0
20260905071943 84 220 2.0 4.0 0.00 0.00 0.00 65 1013.1
20260905071430 84 219 2.0 5.0 0.00 0.00 0.00 64 1013.1
20260905070936 84 217 3.0 5.0 0.00 0.00 0.00 64 1013.1
20260905070442 84 212 3.0 5.0 0.00 0.00 0.00 65 1013.2
20260905065927 85 210 3.0 8.0 0.00 0.00 0.00 64 1013.0
20260905065433 85 214 5.0 9.0 0.00 0.00 0.00 64 1013.1
20260905064940 85 210 4.0 9.0 0.00 0.00 0.00 63 1013.1
20260905064433 85 200 5.0 7.0 0.00 0.00 0.00 63 1013.2
20260905063939 85 206 3.0 7.0 0.00 0.00 0.00 63 1013.2
20260905063429 85 205 3.0 9.0 0.00 0.00 0.00 62 1013.2
20260905062939 86 214 5.0 9.0 0.00 0.00 0.00 61 1013.2
20260905062444 86 199 4.0 8.0 0.00 0.00 0.00 61 1013.2